Check out our new BloomSky Weather System.

Active alerts


No alerts


Thunder radar  blitzortung!


Rain radar more information rain snow radar


Visit our other weather sites:

Template documentation
and downloads

And another site



Weather Underground History page Text

Daily Summary for July 18, 2017 Units:  Metric    English   Both
« Previous Day
Next Day »
Daily Weekly Monthly Yearly Custom
  High: Low: Average:
Temperature: -17.8 °C 25.1 °C 28.9 °C
Dew Point: -17.8 °C 24.3 °C 25.3 °C
Humidity: Humidity % 63 % 81 %
Wind Speed: 0 km/h 0 km/h 2.6 km/h
Wind Gust: 0 km/h - -
Wind:- - SSE
Pressure: 0 hPa 1013.8 hPa -
Precipitation: 0 mm    
Historical Graphs
 
 
Tabular Data for July 18, 2017
Time Temperature Dew Point Pressure Wind Wind Speed Wind Gust Humidity Rainfall Rate (Hourly)
-17.8 °C -17.8 °C 0 hPa Calm     Humidity % 0 mm
00:01 27.6 °C 24.8 °C 1014.1 hPa SE 3.2 km/h 3.2 km/h 85 % 0 mm
00:06 27.7 °C 24.9 °C 1014.1 hPa SSE 1.6 km/h 3.2 km/h 85 % 0 mm
00:11 27.6 °C 24.8 °C 1014.1 hPa SSW 1.6 km/h 3.2 km/h 85 % 0 mm
00:16 27.6 °C 24.8 °C 1014.1 hPa SSW 1.6 km/h 4.8 km/h 85 % 0 mm
00:21 27.5 °C 24.7 °C 1014.1 hPa SSW 3.2 km/h 4.8 km/h 85 % 0 mm
00:26 27.4 °C 24.8 °C 1014.1 hPa South 1.6 km/h 4.8 km/h 86 % 0 mm
00:31 27.3 °C 24.7 °C 1013.8 hPa SSE 1.6 km/h 4.8 km/h 86 % 0 mm
00:36 27.4 °C 24.8 °C 1013.8 hPa SSE 3.2 km/h 4.8 km/h 86 % 0 mm
00:41 27.4 °C 24.8 °C 1013.8 hPa Calm   4.8 km/h 86 % 0 mm
00:46 27.4 °C 24.8 °C 1013.8 hPa Calm   4.8 km/h 86 % 0 mm
00:51 27.4 °C 25 °C 1013.8 hPa Calm   4.8 km/h 87 % 0 mm
00:56 27.3 °C 24.9 °C 1013.8 hPa Calm   3.2 km/h 87 % 0 mm
01:01 27.3 °C 24.9 °C 1014.1 hPa ESE 3.2 km/h 3.2 km/h 87 % 0 mm
01:07 27.3 °C 24.9 °C 1014.1 hPa Calm   4.8 km/h 87 % 0 mm
01:11 27.3 °C 24.9 °C 1014.1 hPa Calm   4.8 km/h 87 % 0 mm
01:17 27.2 °C 25 °C 1014.1 hPa Calm   4.8 km/h 88 % 0 mm
01:22 27.2 °C 25 °C 1014.1 hPa Calm   3.2 km/h 88 % 0 mm
01:27 27.2 °C 25 °C 1014.1 hPa SSE 1.6 km/h 3.2 km/h 88 % 0 mm
01:32 27.2 °C 25 °C 1014.1 hPa South 3.2 km/h 3.2 km/h 88 % 0 mm
01:37 27.1 °C 24.9 °C 1014.1 hPa SSE 1.6 km/h 3.2 km/h 88 % 0 mm
01:42 27.1 °C 25.1 °C 1014.1 hPa Calm   3.2 km/h 89 % 0 mm
01:47 27.1 °C 25.1 °C 1014.1 hPa SSE 1.6 km/h 3.2 km/h 89 % 0 mm
01:52 27 °C 25 °C 1014.1 hPa SSE 1.6 km/h 3.2 km/h 89 % 0 mm
01:57 26.9 °C 24.9 °C 1014.1 hPa Calm   3.2 km/h 89 % 0 mm
02:02 26.9 °C 24.9 °C 1014.1 hPa SSE 1.6 km/h 3.2 km/h 89 % 0 mm
02:07 26.8 °C 24.8 °C 1014.1 hPa Calm   3.2 km/h 89 % 0 mm
02:12 26.8 °C 25 °C 1014.1 hPa Calm   3.2 km/h 90 % 0 mm
02:17 26.7 °C 24.9 °C 1014.1 hPa Calm   3.2 km/h 90 % 0 mm
02:22 26.7 °C 24.9 °C 1014.1 hPa Calm     90 % 0 mm
02:27 26.6 °C 24.8 °C 1013.8 hPa Calm     90 % 0 mm
02:32 26.6 °C 24.8 °C 1013.8 hPa Calm     90 % 0 mm
02:37 26.5 °C 24.7 °C 1013.8 hPa Calm     90 % 0 mm
02:42 26.4 °C 24.8 °C 1013.8 hPa Calm     91 % 0 mm
02:47 26.4 °C 24.8 °C 1014.1 hPa Calm     91 % 0 mm
02:52 26.4 °C 24.8 °C 1014.1 hPa Calm     91 % 0 mm
02:57 26.3 °C 24.9 °C 1014.1 hPa Calm     92 % 0 mm
03:02 26.3 °C 24.9 °C 1014.4 hPa Calm     92 % 0 mm
03:07 26.3 °C 24.9 °C 1014.4 hPa Calm     92 % 0 mm
03:12 26.2 °C 24.8 °C 1014.4 hPa Calm     92 % 0 mm
03:17 26.2 °C 24.8 °C 1014.4 hPa Calm     92 % 0 mm
03:22 26.1 °C 24.7 °C 1014.4 hPa Calm     92 % 0 mm
03:27 26 °C 24.6 °C 1014.4 hPa Calm     92 % 0 mm
03:32 26.1 °C 24.9 °C 1014.4 hPa Calm     93 % 0 mm
03:37 26 °C 24.8 °C 1014.4 hPa Calm     93 % 0 mm
03:42 25.9 °C 24.7 °C 1014.4 hPa Calm     93 % 0 mm
03:47 25.9 °C 24.7 °C 1014.4 hPa Calm     93 % 0 mm
03:52 25.8 °C 24.6 °C 1014.1 hPa Calm     93 % 0 mm
03:57 25.8 °C 24.6 °C 1014.1 hPa Calm     93 % 0 mm
04:02 25.7 °C 24.5 °C 1014.4 hPa Calm     93 % 0 mm
04:07 25.6 °C 24.6 °C 1014.4 hPa Calm     94 % 0 mm
04:12 25.7 °C 24.7 °C 1014.4 hPa Calm     94 % 0 mm
04:17 25.6 °C 24.6 °C 1014.4 hPa Calm     94 % 0 mm
04:22 25.6 °C 24.6 °C 1014.4 hPa Calm     94 % 0 mm
04:27 25.5 °C 24.5 °C 1014.4 hPa Calm     94 % 0 mm
04:32 25.5 °C 24.5 °C 1014.4 hPa Calm     94 % 0 mm
04:37 25.5 °C 24.5 °C 1014.8 hPa Calm     94 % 0 mm
04:42 25.5 °C 24.6 °C 1014.8 hPa Calm     95 % 0 mm
04:47 25.5 °C 24.6 °C 1014.8 hPa Calm     95 % 0 mm
04:52 25.4 °C 24.5 °C 1014.8 hPa Calm     95 % 0 mm
04:57 25.5 °C 24.6 °C 1014.8 hPa Calm     95 % 0 mm
05:02 25.5 °C 24.6 °C 1014.8 hPa Calm     95 % 0 mm
05:07 25.4 °C 24.5 °C 1014.8 hPa Calm     95 % 0 mm
05:12 25.4 °C 24.5 °C 1014.8 hPa Calm     95 % 0 mm
05:17 25.4 °C 24.5 °C 1014.8 hPa Calm     95 % 0 mm
05:22 25.4 °C 24.5 °C 1014.8 hPa Calm     95 % 0 mm
05:27 25.3 °C 24.4 °C 1014.8 hPa Calm     95 % 0 mm
05:32 25.3 °C 24.4 °C 1014.8 hPa Calm     95 % 0 mm
05:37 25.3 °C 24.4 °C 1014.8 hPa Calm     95 % 0 mm
05:42 25.3 °C 24.6 °C 1015.1 hPa Calm     96 % 0 mm
05:43 25.3 °C 24.6 °C 1015.1 hPa Calm     96 % 0 mm
05:48 25.3 °C 24.6 °C 1015.1 hPa Calm     96 % 0 mm
05:53 25.3 °C 24.6 °C 1015.1 hPa Calm     96 % 0 mm
05:58 25.3 °C 24.6 °C 1015.1 hPa Calm     96 % 0 mm
06:03 25.3 °C 24.6 °C 1015.5 hPa Calm     96 % 0 mm
06:08 25.3 °C 24.6 °C 1015.5 hPa Calm     96 % 0 mm
06:13 25.3 °C 24.6 °C 1015.5 hPa Calm     96 % 0 mm
06:18 25.3 °C 24.6 °C 1015.5 hPa Calm     96 % 0 mm
06:23 25.2 °C 24.5 °C 1015.1 hPa Calm     96 % 0 mm
06:28 25.1 °C 24.4 °C 1015.1 hPa Calm     96 % 0 mm
06:33 25.1 °C 24.4 °C 1015.1 hPa Calm     96 % 0 mm
06:38 25.1 °C 24.4 °C 1015.1 hPa Calm     96 % 0 mm
06:40 25.1 °C 24.4 °C 1015.1 hPa Calm     96 % 0 mm
06:45 25.1 °C 24.4 °C 1015.1 hPa Calm     96 % 0 mm
06:50 25.2 °C 24.7 °C 1015.1 hPa Calm     97 % 0 mm
06:51 25.2 °C 24.7 °C 1015.1 hPa Calm     97 % 0 mm
06:56 25.3 °C 24.8 °C 1015.1 hPa Calm     97 % 0 mm
07:01 25.4 °C 24.9 °C 1015.5 hPa Calm     97 % 0 mm
07:06 25.4 °C 24.9 °C 1015.5 hPa Calm     97 % 0 mm
07:12 25.6 °C 25.1 °C 1015.5 hPa Calm     97 % 0 mm
07:16 25.6 °C 24.9 °C 1015.5 hPa Calm     96 % 0 mm
07:22 25.8 °C 25.1 °C 1015.5 hPa SSE 1.6 km/h   96 % 0 mm
07:27 25.8 °C 25.1 °C 1015.8 hPa Calm   1.6 km/h 96 % 0 mm
07:32 26.1 °C 25.4 °C 1015.8 hPa Calm   1.6 km/h 96 % 0 mm
07:37 26.5 °C 25.6 °C 1015.8 hPa Calm   1.6 km/h 95 % 0 mm
07:42 27.1 °C 26.2 °C 1015.8 hPa Calm     95 % 0 mm
07:47 27.7 °C 26.8 °C 1015.8 hPa Calm     95 % 0 mm
07:52 27.9 °C 26.5 °C 1015.8 hPa Calm     92 % 0 mm
07:54 27.9 °C 26.1 °C 1015.8 hPa SSE 1.6 km/h   90 % 0 mm
07:59 27.8 °C 25.8 °C 1015.5 hPa NW 1.6 km/h 1.6 km/h 89 % 0 mm
08:04 27.7 °C 25.9 °C 1015.8 hPa Calm   3.2 km/h 90 % 0 mm
08:09 27.8 °C 25.6 °C 1015.8 hPa NW 1.6 km/h 3.2 km/h 88 % 0 mm
08:14 28.2 °C 26.2 °C 1015.8 hPa Calm   4.8 km/h 89 % 0 mm
08:19 28.5 °C 26.1 °C 1015.8 hPa Calm   4.8 km/h 87 % 0 mm
08:24 29 °C 26.4 °C 1015.8 hPa Calm   4.8 km/h 86 % 0 mm
08:29 29.2 °C 26.4 °C 1016.1 hPa Calm   3.2 km/h 85 % 0 mm
08:34 29.8 °C 27 °C 1016.1 hPa NNE 1.6 km/h 3.2 km/h 85 % 0 mm
08:39 30.2 °C 26.6 °C 1016.5 hPa Calm   3.2 km/h 81 % 0 mm
08:44 30.8 °C 26.9 °C 1016.5 hPa SSW 1.6 km/h 3.2 km/h 80 % 0 mm
08:49 31.1 °C 26.8 °C 1016.8 hPa Calm   3.2 km/h 78 % 0 mm
08:54 31.2 °C 26.2 °C 1016.8 hPa Calm   3.2 km/h 75 % 0 mm
08:59 30.8 °C 26.3 °C 1016.8 hPa NW 3.2 km/h 4.8 km/h 77 % 0 mm
09:04 30.9 °C 26.8 °C 1016.8 hPa Calm   6.4 km/h 79 % 0 mm
09:09 31.4 °C 26.4 °C 1017.2 hPa ESE 3.2 km/h 6.4 km/h 75 % 0 mm
09:14 31.8 °C 26.8 °C 1017.2 hPa Calm   6.4 km/h 75 % 0 mm
09:19 32 °C 26.5 °C 1017.2 hPa NNW 3.2 km/h 3.2 km/h 73 % 0 mm
09:24 31.6 °C 26.2 °C 1017.2 hPa Calm   4.8 km/h 73 % 0 mm
09:29 31.4 °C 26.2 °C 1017.2 hPa Calm   4.8 km/h 74 % 0 mm
09:34 31.4 °C 26.4 °C 1017.2 hPa Calm   4.8 km/h 75 % 0 mm
09:39 31.5 °C 26.3 °C 1017.2 hPa Calm   1.6 km/h 74 % 0 mm
09:44 31.7 °C 26.7 °C 1016.8 hPa Calm   3.2 km/h 75 % 0 mm
09:49 32 °C 26.5 °C 1016.8 hPa ENE 1.6 km/h 3.2 km/h 73 % 0 mm
09:54 32.1 °C 25.9 °C 1017.2 hPa Calm   3.2 km/h 70 % 0 mm
09:59 32 °C 26.3 °C 1017.2 hPa NW 3.2 km/h 4.8 km/h 72 % 0 mm
10:04 31.8 °C 25.6 °C 1017.2 hPa East 1.6 km/h 4.8 km/h 70 % 0 mm
10:09 31.6 °C 25.5 °C 1017.2 hPa Calm   6.4 km/h 70 % 0 mm
10:14 31.4 °C 25.7 °C 1017.2 hPa Calm   6.4 km/h 72 % 0 mm
10:19 31.4 °C 25.7 °C 1017.2 hPa Calm   6.4 km/h 72 % 0 mm
10:24 31.3 °C 25.9 °C 1017.2 hPa Calm   3.2 km/h 73 % 0 mm
10:29 31.3 °C 26.1 °C 1017.2 hPa Calm   1.6 km/h 74 % 0 mm
10:34 31.2 °C 26 °C 1017.5 hPa ESE 1.6 km/h 1.6 km/h 74 % 0 mm
10:39 31.3 °C 25.9 °C 1017.2 hPa NNW 3.2 km/h 4.8 km/h 73 % 0 mm
10:44 31.2 °C 25.8 °C 1017.5 hPa East 3.2 km/h 4.8 km/h 73 % 0 mm
10:49 30.9 °C 25.7 °C 1017.2 hPa ENE 3.2 km/h 4.8 km/h 74 % 0 mm
10:54 30.7 °C 25.8 °C 1017.5 hPa Calm   6.4 km/h 75 % 0 mm
10:59 30.6 °C 25.7 °C 1017.5 hPa SSE 1.6 km/h 6.4 km/h 75 % 0 mm
11:04 30.6 °C 25.7 °C 1017.2 hPa SSW 3.2 km/h 6.4 km/h 75 % 0 mm
11:09 30.5 °C 25.8 °C 1017.2 hPa East 3.2 km/h 4.8 km/h 76 % 0 mm
11:15 30.3 °C 25.6 °C 1017.2 hPa SSE 6.4 km/h 6.4 km/h 76 % 0 mm
11:19 30.3 °C 25.6 °C 1017.2 hPa SE 3.2 km/h 6.4 km/h 76 % 0 mm
11:25 30.1 °C 26.1 °C 1017.2 hPa NNE 1.6 km/h 6.4 km/h 79 % 0 mm
11:30 30.2 °C 26.6 °C 1017.2 hPa Calm   6.4 km/h 81 % 0 mm
11:35 30.4 °C 26.1 °C 1017.2 hPa ESE 6.4 km/h 8 km/h 78 % 0 mm
11:40 30.7 °C 25.3 °C 1017.2 hPa ESE 4.8 km/h 9.7 km/h 73 % 0 mm
11:45 31.1 °C 25.9 °C 1017.2 hPa SE 6.4 km/h 9.7 km/h 74 % 0 mm
11:50 31.6 °C 26.4 °C 1017.2 hPa SE 8 km/h 9.7 km/h 74 % 0 mm
11:55 31.6 °C 26.2 °C 1017.2 hPa ESE 6.4 km/h 12.9 km/h 73 % 0 mm
12:00 31.6 °C 26.8 °C 1017.2 hPa East 4.8 km/h 12.9 km/h 76 % 0 mm
12:05 31.6 °C 26.2 °C 1017.2 hPa SSE 6.4 km/h 12.9 km/h 73 % 0 mm
12:10 31.9 °C 26.5 °C 1016.8 hPa SSE 8 km/h 12.9 km/h 73 % 0 mm
12:15 31.9 °C 26 °C 1016.8 hPa SE 4.8 km/h 11.3 km/h 71 % 0 mm
12:20 31.8 °C 25.9 °C 1017.2 hPa SE 3.2 km/h 11.3 km/h 71 % 0 mm
12:25 31.4 °C 25.5 °C 1017.2 hPa ESE 3.2 km/h 9.7 km/h 71 % 0 mm
12:30 31.2 °C 25.5 °C 1016.8 hPa SSE 12.9 km/h 12.9 km/h 72 % 0 mm
12:35 30.8 °C 25.6 °C 1016.8 hPa SE 6.4 km/h 12.9 km/h 74 % 0 mm
12:40 30.4 °C 25.7 °C 1017.2 hPa SE 14.5 km/h 19.3 km/h 76 % 0 mm
12:45 29.7 °C 25.4 °C 1017.2 hPa SE 12.9 km/h 19.3 km/h 78 % 0 mm
12:50 29.3 °C 25.5 °C 1017.2 hPa SE 4.8 km/h 19.3 km/h 80 % 0 mm
12:55 29.2 °C 25 °C 1017.2 hPa SSE 14.5 km/h 19.3 km/h 78 % 0 mm
13:00 29.2 °C 25 °C 1017.2 hPa SE 12.9 km/h 22.5 km/h 78 % 0 mm
13:05 28.8 °C 25.2 °C 1017.2 hPa ESE 4.8 km/h 22.5 km/h 81 % 0 mm
13:10 28.8 °C 25.4 °C 1017.2 hPa ESE 9.7 km/h 22.5 km/h 82 % 0 mm
13:15 29.2 °C 25.6 °C 1017.2 hPa SE 9.7 km/h 20.9 km/h 81 % 0 mm
13:20 29.6 °C 26.2 °C 1016.8 hPa South 6.4 km/h 17.7 km/h 82 % 0 mm
13:25 29.8 °C 26.2 °C 1016.8 hPa SSE 9.7 km/h 17.7 km/h 81 % 0 mm
13:30 30.2 °C 26.4 °C 1016.8 hPa SSE 9.7 km/h 16.1 km/h 80 % 0 mm
13:35 30.1 °C 25.4 °C 1016.8 hPa SE 9.7 km/h 16.1 km/h 76 % 0 mm
13:40 30.1 °C 25.6 °C 1016.8 hPa South 3.2 km/h 16.1 km/h 77 % 0 mm
13:45 30.2 °C 25.9 °C 1016.8 hPa South 4.8 km/h 16.1 km/h 78 % 0 mm
13:50 30.2 °C 26.1 °C 1016.8 hPa South 3.2 km/h 11.3 km/h 79 % 0 mm
13:55 30.1 °C 26.1 °C 1016.8 hPa SSW 4.8 km/h 11.3 km/h 79 % 0 mm
13:57 30.1 °C 26.3 °C 1016.8 hPa SSE 1.6 km/h 11.3 km/h 80 % 0 mm
14:02 30.2 °C 26.1 °C 1016.8 hPa SSE 4.8 km/h 11.3 km/h 79 % 0 mm
14:07 30.1 °C 26.1 °C 1016.5 hPa SSE 4.8 km/h 11.3 km/h 79 % 0 mm
14:12 29.9 °C 25.9 °C 1016.5 hPa SSE 4.8 km/h 9.7 km/h 79 % 0 mm
14:17 29.9 °C 26.1 °C 1016.5 hPa SSW 11.3 km/h 11.3 km/h 80 % 0 mm
14:22 30 °C 26 °C 1016.1 hPa ESE 6.4 km/h 12.9 km/h 79 % 0 mm
14:27 30.1 °C 26.1 °C 1016.1 hPa Calm   12.9 km/h 79 % 0 mm
14:32 30.1 °C 26.1 °C 1016.1 hPa SE 3.2 km/h 12.9 km/h 79 % 0 mm
14:37 30.3 °C 26.2 °C 1016.1 hPa Calm   8 km/h 79 % 0 mm
14:42 30.4 °C 26.3 °C 1015.8 hPa SSE 3.2 km/h 6.4 km/h 79 % 0 mm
14:47 30.5 °C 26.4 °C 1015.8 hPa SE 4.8 km/h 6.4 km/h 79 % 0 mm
14:52 30.6 °C 26.8 °C 1015.8 hPa Calm   6.4 km/h 80 % 0 mm
14:57 30.6 °C 26.1 °C 1015.8 hPa East 1.6 km/h 6.4 km/h 77 % 0 mm
15:02 30.8 °C 26.5 °C 1015.8 hPa SSW 4.8 km/h 6.4 km/h 78 % 0 mm
15:07 30.9 °C 26.6 °C 1015.8 hPa SSW 3.2 km/h 6.4 km/h 78 % 0 mm
15:12 31 °C 26.5 °C 1015.8 hPa SSE 1.6 km/h 6.4 km/h 77 % 0 mm
15:17 31.2 °C 26.9 °C 1015.8 hPa SSE 3.2 km/h 6.4 km/h 78 % 0 mm
15:22 31.3 °C 26.1 °C 1015.8 hPa SE 1.6 km/h 6.4 km/h 74 % 0 mm
15:27 31.4 °C 26.2 °C 1015.8 hPa SSW 1.6 km/h 6.4 km/h 74 % 0 mm
15:32 31.4 °C 26 °C 1015.8 hPa South 1.6 km/h 6.4 km/h 73 % 0 mm
15:37 31.5 °C 25.8 °C 1015.5 hPa SSE 4.8 km/h 6.4 km/h 72 % 0 mm
15:42 31.6 °C 25.9 °C 1015.5 hPa SE 1.6 km/h 8 km/h 72 % 0 mm
15:47 31.6 °C 25.9 °C 1015.5 hPa South 3.2 km/h 8 km/h 72 % 0 mm
15:52 31.7 °C 25.8 °C 1015.5 hPa ESE 4.8 km/h 8 km/h 71 % 0 mm
15:57 31.8 °C 25.6 °C 1015.5 hPa SE 4.8 km/h 9.7 km/h 70 % 0 mm
16:02 31.8 °C 25.4 °C 1015.1 hPa South 1.6 km/h 9.7 km/h 69 % 0 mm
16:07 32.1 °C 26.2 °C 1015.1 hPa Calm   9.7 km/h 71 % 0 mm
16:12 32.3 °C 26.4 °C 1015.1 hPa SSE 1.6 km/h 6.4 km/h 71 % 0 mm
16:17 32.3 °C 25.9 °C 1015.1 hPa SSE 4.8 km/h 6.4 km/h 69 % 0 mm
16:22 32.2 °C 26 °C 1015.5 hPa Calm   9.7 km/h 70 % 0 mm
16:27 32.4 °C 26 °C 1015.1 hPa Calm   9.7 km/h 69 % 0 mm
16:32 32.5 °C 26.3 °C 1015.1 hPa SSW 3.2 km/h 9.7 km/h 70 % 0 mm
16:37 32.6 °C 26.2 °C 1015.1 hPa ENE 1.6 km/h 4.8 km/h 69 % 0 mm
16:42 32.5 °C 24.8 °C 1015.1 hPa SE 4.8 km/h 4.8 km/h 64 % 0 mm
16:47 32.5 °C 24.5 °C 1015.1 hPa East 3.2 km/h 8 km/h 63 % 0 mm
16:48 32.5 °C 24.8 °C 1015.1 hPa SE 1.6 km/h 8 km/h 64 % 0 mm
16:53 32.5 °C 25.1 °C 1015.1 hPa SE 6.4 km/h 11.3 km/h 65 % 0 mm
16:58 32.4 °C 25.2 °C 1015.1 hPa SE 4.8 km/h 11.3 km/h 66 % 0 mm
17:03 32.4 °C 25 °C 1015.1 hPa ESE 4.8 km/h 11.3 km/h 65 % 0 mm
17:08 32.3 °C 24.9 °C 1015.1 hPa SSE 6.4 km/h 9.7 km/h 65 % 0 mm
17:13 32.4 °C 25.5 °C 1015.1 hPa East 4.8 km/h 12.9 km/h 67 % 0 mm
17:14 32.5 °C 25.6 °C 1015.1 hPa South 3.2 km/h 12.9 km/h 67 % 0 mm
17:19 32.7 °C 25.5 °C 1014.8 hPa ENE 3.2 km/h 12.9 km/h 66 % 0 mm
17:24 32.8 °C 25.9 °C 1014.8 hPa Calm   14.5 km/h 67 % 0 mm
17:29 32.9 °C 26 °C 1014.8 hPa ENE 4.8 km/h 14.5 km/h 67 % 0 mm
17:34 32.8 °C 25.6 °C 1014.8 hPa South 9.7 km/h 14.5 km/h 66 % 0 mm
17:39 32.8 °C 25.9 °C 1014.8 hPa South 6.4 km/h 11.3 km/h 67 % 0 mm
17:44 32.8 °C 25.9 °C 1014.8 hPa ESE 8 km/h 12.9 km/h 67 % 0 mm
17:49 32.8 °C 25.9 °C 1014.8 hPa SW 11.3 km/h 12.9 km/h 67 % 0 mm
17:54 32.8 °C 25.9 °C 1014.8 hPa SE 8 km/h 14.5 km/h 67 % 0 mm
17:59 32.7 °C 26 °C 1014.8 hPa SSW 6.4 km/h 14.5 km/h 68 % 0 mm
18:00 32.8 °C 26.4 °C 1014.8 hPa ESE 11.3 km/h 14.5 km/h 69 % 0 mm
18:05 32.8 °C 26.4 °C 1014.8 hPa SE 6.4 km/h 16.1 km/h 69 % 0 mm
18:10 32.8 °C 26.4 °C 1014.8 hPa SSW 4.8 km/h 16.1 km/h 69 % 0 mm
18:16 32.4 °C 26.2 °C 1014.8 hPa SE 6.4 km/h 17.7 km/h 70 % 0 mm
18:21 32 °C 26.1 °C 1015.1 hPa SE 6.4 km/h 17.7 km/h 71 % 0 mm
18:26 31.8 °C 26.1 °C 1015.1 hPa SE 11.3 km/h 17.7 km/h 72 % 0 mm
18:31 31.6 °C 26.2 °C 1014.8 hPa SSE 11.3 km/h 17.7 km/h 73 % 0 mm
18:36 31.3 °C 26.1 °C 1015.1 hPa SE 8 km/h 17.7 km/h 74 % 0 mm
18:41 31.2 °C 26 °C 1014.8 hPa East 9.7 km/h 17.7 km/h 74 % 0 mm
18:46 31.2 °C 26.2 °C 1014.8 hPa South 8 km/h 17.7 km/h 75 % 0 mm
18:51 31.2 °C 26 °C 1015.1 hPa SE 11.3 km/h 16.1 km/h 74 % 0 mm
18:56 31.3 °C 26.1 °C 1015.1 hPa ESE 4.8 km/h 16.1 km/h 74 % 0 mm
19:01 31.3 °C 26.1 °C 1015.1 hPa SE 17.7 km/h 17.7 km/h 74 % 0 mm
19:06 31.2 °C 26 °C 1015.1 hPa SE 6.4 km/h 17.7 km/h 74 % 0 mm
19:11 31.3 °C 26.1 °C 1015.1 hPa ESE 6.4 km/h 17.7 km/h 74 % 0 mm
19:16 31.3 °C 26.1 °C 1015.1 hPa SSE 11.3 km/h 17.7 km/h 74 % 0 mm
19:21 31.2 °C 26 °C 1015.1 hPa SE 4.8 km/h 14.5 km/h 74 % 0 mm
19:26 31.1 °C 25.9 °C 1015.5 hPa ESE 8 km/h 14.5 km/h 74 % 0 mm
19:31 30.9 °C 25.9 °C 1015.5 hPa ESE 4.8 km/h 14.5 km/h 75 % 0 mm
19:36 30.9 °C 25.9 °C 1015.5 hPa ESE 9.7 km/h 14.5 km/h 75 % 0 mm
19:41 30.8 °C 25.9 °C 1015.5 hPa SE 3.2 km/h 14.5 km/h 75 % 0 mm
19:46 30.8 °C 26.1 °C 1015.5 hPa SE 6.4 km/h 12.9 km/h 76 % 0 mm
19:51 30.7 °C 25.8 °C 1015.5 hPa East 4.8 km/h 12.9 km/h 75 % 0 mm
19:56 30.6 °C 25.7 °C 1015.5 hPa East 3.2 km/h 12.9 km/h 75 % 0 mm
20:01 30.5 °C 25.8 °C 1015.5 hPa ESE 3.2 km/h 9.7 km/h 76 % 0 mm
20:06 30.4 °C 25.7 °C 1015.5 hPa SE 3.2 km/h 9.7 km/h 76 % 0 mm
20:11 30.3 °C 25.6 °C 1015.5 hPa Calm   8 km/h 76 % 0 mm
20:16 30.3 °C 25.6 °C 1015.5 hPa Calm   8 km/h 76 % 0 mm
20:21 30.2 °C 25.5 °C 1015.5 hPa East 4.8 km/h 8 km/h 76 % 0 mm
20:22 30.2 °C 25.5 °C 1015.5 hPa ESE 3.2 km/h 8 km/h 76 % 0 mm
20:27 30.1 °C 25.4 °C 1015.5 hPa SE 1.6 km/h 6.4 km/h 76 % 0 mm
20:32 29.9 °C 25.4 °C 1015.5 hPa ESE 3.2 km/h 8 km/h 77 % 0 mm
20:37 29.8 °C 25.3 °C 1015.5 hPa SSE 3.2 km/h 8 km/h 77 % 0 mm
20:42 29.8 °C 25.3 °C 1015.8 hPa ESE 1.6 km/h 8 km/h 77 % 0 mm
20:47 29.7 °C 25.2 °C 1015.8 hPa South 3.2 km/h 6.4 km/h 77 % 0 mm
20:48 29.7 °C 25.2 °C 1015.8 hPa Calm   6.4 km/h 77 % 0 mm
20:53 29.6 °C 25.1 °C 1015.8 hPa ESE 1.6 km/h 6.4 km/h 77 % 0 mm
20:58 29.5 °C 25.3 °C 1015.8 hPa ESE 6.4 km/h 6.4 km/h 78 % 0 mm
21:03 29.4 °C 25.2 °C 1015.8 hPa ESE 3.2 km/h 8 km/h 78 % 0 mm
21:08 29.4 °C 25.2 °C 1015.8 hPa SE 1.6 km/h 8 km/h 78 % 0 mm
21:13 29.4 °C 25.2 °C 1016.1 hPa East 6.4 km/h 8 km/h 78 % 0 mm
21:18 29.3 °C 25.1 °C 1015.8 hPa SSE 4.8 km/h 6.4 km/h 78 % 0 mm
21:19 29.3 °C 25.1 °C 1015.8 hPa SE 1.6 km/h 6.4 km/h 78 % 0 mm
21:24 29.3 °C 25.1 °C 1015.8 hPa SSE 1.6 km/h 6.4 km/h 78 % 0 mm
21:29 29.2 °C 25 °C 1016.1 hPa ESE 1.6 km/h 6.4 km/h 78 % 0 mm
21:34 29.1 °C 25.1 °C 1016.1 hPa Calm   6.4 km/h 79 % 0 mm
21:39 29 °C 25 °C 1016.1 hPa ESE 3.2 km/h 6.4 km/h 79 % 0 mm
21:44 28.9 °C 24.9 °C 1016.5 hPa ESE 4.8 km/h 6.4 km/h 79 % 0 mm
21:49 28.8 °C 25 °C 1016.5 hPa SE 1.6 km/h 6.4 km/h 80 % 0 mm
21:54 28.8 °C 25 °C 1016.5 hPa ESE 3.2 km/h 6.4 km/h 80 % 0 mm
21:59 28.7 °C 24.9 °C 1016.5 hPa SE 3.2 km/h 4.8 km/h 80 % 0 mm
22:04 28.7 °C 24.9 °C 1016.5 hPa SSW 1.6 km/h 6.4 km/h 80 % 0 mm
22:09 28.6 °C 24.8 °C 1016.5 hPa South 3.2 km/h 6.4 km/h 80 % 0 mm
22:14 28.4 °C 24.8 °C 1016.8 hPa South 1.6 km/h 6.4 km/h 81 % 0 mm
22:19 28.3 °C 24.7 °C 1016.8 hPa South 1.6 km/h 6.4 km/h 81 % 0 mm
22:24 28.2 °C 24.6 °C 1016.8 hPa Calm   6.4 km/h 81 % 0 mm
22:29 28.2 °C 24.8 °C 1016.8 hPa SSW 1.6 km/h 6.4 km/h 82 % 0 mm
22:34 28.1 °C 24.7 °C 1016.8 hPa Calm   4.8 km/h 82 % 0 mm
22:39 28.1 °C 24.7 °C 1016.8 hPa SSW 3.2 km/h 4.8 km/h 82 % 0 mm
22:44 27.9 °C 24.5 °C 1016.8 hPa Calm   4.8 km/h 82 % 0 mm
22:49 27.8 °C 24.6 °C 1016.8 hPa Calm   4.8 km/h 83 % 0 mm
22:54 27.8 °C 24.6 °C 1016.8 hPa SSW 4.8 km/h 4.8 km/h 83 % 0 mm
22:59 27.8 °C 24.6 °C 1016.8 hPa South 1.6 km/h 4.8 km/h 83 % 0 mm
23:04 27.7 °C 24.5 °C 1016.8 hPa Calm   4.8 km/h 83 % 0 mm
23:09 27.6 °C 24.4 °C 1016.8 hPa Calm   4.8 km/h 83 % 0 mm
23:14 27.6 °C 24.4 °C 1016.8 hPa Calm   4.8 km/h 83 % 0 mm
23:19 27.5 °C 24.6 °C 1017.2 hPa Calm   3.2 km/h 84 % 0 mm
23:24 27.3 °C 24.4 °C 1017.2 hPa Calm   1.6 km/h 84 % 0 mm
23:29 27.3 °C 24.4 °C 1017.2 hPa Calm   1.6 km/h 84 % 0 mm
23:34 27.2 °C 24.5 °C 1017.2 hPa Calm     85 % 0 mm
23:40 27.1 °C 24.4 °C 1017.2 hPa Calm   1.6 km/h 85 % 0 mm
23:45 27 °C 24.5 °C 1017.2 hPa Calm   1.6 km/h 86 % 0 mm
23:50 26.8 °C 24.3 °C 1017.2 hPa Calm   1.6 km/h 86 % 0 mm
23:55 26.7 °C 24.4 °C 1017.2 hPa Calm     87 % 0 mm
Spring, Texas: Villages of Bridgestone
Compliments of Weather Underground - 3 mb

Script developed by  Jim McMurry - jmcmurry@mwt.net Adapted for the template by  Wim van der Kuil - Leuven-Template.eu

You find our weather info also at:

UK Metoffice

WeatherCloud

Weather Underground

Mid-South Weather Network

AWEKAS

Citizen Weather Observer Program (CWOP)

HAMweather, WeatherForYou, PWS Weather

Equipment we use:

Weather-station
Davis Vantage Vue

Weather-program
Meteohub

Weather-server
Debian 7.9 x86 (Guest)

Provider
DreamHost

Davis Vantage Vue

Meteohub

Debian 7.9 x86 (Guest)

DreamHost